Regional Weather Roundup
Issued by NWS Jackson, KY

Home | Current Version | Previous Version | Graphics & Text | Print | Product List | Glossary On
Versions: 1 2 3 4 5 6 7 8 9 10 11 12 13 14 15 16 17 18 19 20 21 22 23 24 25 26 27 28 29 30 31 32 33 34 35 36 37 38 39 40 41 42 43 44 45 46 47 48 49 50
000
ASUS43 KJKL 201210
RWRJKL

EAST KENTUCKY HOURLY WEATHER ROUNDUP
NATIONAL WEATHER SERVICE JACKSON KY
800 AM EDT THU JUL 20 2017

NOTE: "FAIR" INDICATES FEW OR NO CLOUDS BELOW 12,000 FEET WITH
NO SIGNIFICANT WEATHER AND/OR OBSTRUCTIONS TO VISIBILITY.

* THESE REPORTS ARE NOT UNDER NWS QUALITY CONTROL AND MAY NOT
  REPORT WEATHER SUCH AS PRECIPITATION AND FOG.

KYZ079-080-083-085-087-088-110-112-115-119-120-201300
...EASTERN KENTUCKY...

CITY           SKY/WX    TMP DP  RH WIND       PRES   REMARKS
JACKSON          N/A     72  68  87 CALM      30.14R
6HR MIN TEMP:  68; 6HR MAX TEMP:  75;

LONDON           N/A     70  65  84 CALM      30.15R
6HR MIN TEMP:  66; 6HR MAX TEMP:  70;

SOMERSET*        N/A     70  70 100 CALM      30.15R
MONTICELLO*      N/A     71  69  93 MISG      30.15R
6HR MIN TEMP:  67; 6HR MAX TEMP:  71;

WILLIAMSBURG*    N/A     66  66 100 CALM      30.15R
MIDDLESBORO*     N/A     65  65 100 CALM      30.16R FOG
6HR MIN TEMP:  64; 6HR MAX TEMP:  68;

HARLAN APT*      N/A     68  64  88 CALM      30.17R VSB<1/4
PIKE CO APT*     N/A     70  70 100 S3        30.14S
BIG SANDY APT*   N/A     72  72  98 CALM      30.13R
6HR MIN TEMP:  69; 6HR MAX TEMP:  74;

MOREHEAD APT*    N/A     70  66  88 S5        30.13R
ASHLAND*         N/A    N/A N/A N/A MISG        N/A
$$

KYZ035-036-041-042-044-050-067-078-099-201300
...CENTRAL KENTUCKY...

CITY           SKY/WX    TMP DP  RH WIND       PRES   REMARKS
MT STERLING*     N/A     70  68  94 CALM      30.15R
FLEMING/MASON*   N/A     73  68  84 CALM      30.13R
DANVILLE*        N/A     72  66  83 CALM      30.15R
LEXINGTON        N/A     72  67  84 CALM      30.13R
6HR MIN TEMP:  68; 6HR MAX TEMP:  73;

FRANKFORT        N/A     74  68  81 CALM      30.11R
6HR MIN TEMP:  69; 6HR MAX TEMP:  74;

LOUISVILLE     PTSUNNY   77  72  84 SW3       30.10R
6HR MIN TEMP:  75; 6HR MAX TEMP:  81;

LEBANON*         N/A     72  68  88 CALM      30.13R
GLASGOW*         N/A     73  73 100 CALM      30.13R FOG
BOWLING GREEN    N/A     77  74  90 SW3       30.11R
6HR MIN TEMP:  73; 6HR MAX TEMP:  77;

$$

KYZ091>093-OHZ055-061-077-WVZ005-015-034-035-042-201300
...SOUTHERN OHIO/WEST VIRGINIA...

CITY           SKY/WX    TMP DP  RH WIND       PRES   REMARKS
COVINGTON      PTSUNNY   73  72  96 SW3       30.12R
COLUMBUS       PTSUNNY   74  70  87 SE5       30.09R
DAYTON         PTSUNNY   74  71  91 SW7       30.12R
WILMINGTON       N/A     72  70  93 CALM      30.11R
HUNTINGTON       N/A     72  70  93 CALM      30.11R FOG
CHARLESTON       N/A     73  69  87 CALM      30.10R
PINEVILLE*     FOG       66  65  96 MISG      30.21R VSB 1/2
BECKLEY          N/A     70  66  87 CALM      30.19R
BLUEFIELD        N/A     69  63  81 W3        30.22R
LOGAN CO APT*  FOG       70  70 100 CALM      30.14R VSB<1/4
$$

VAZ002-007-008-TNZ017-027-036-066-071-201300
...SOUTHWEST VIRGINIA/EAST TENNESSEE...

CITY           SKY/WX    TMP DP  RH WIND       PRES   REMARKS
WISE*            N/A     72  70  94 CALM      30.23R
JONESVILLE*    CLOUDY    66  66 100 CALM      30.18R FOG
ABINGDON*        N/A     70  67  90 CALM      30.19R
BRISTOL          N/A     69  66  90 N3        30.16R
MORRISTOWN*    PTSUNNY   72  68  88 CALM      30.15R
SEVIERVILLE*   SUNNY     72  66  83 CALM      30.13S
KNOXVILLE        N/A     73  69  87 CALM      30.13R
LAFOLLETTE*    SUNNY     70  68  94 CALM      30.17S
OAK RIDGE        N/A     72  67  84 CALM      30.14R
CROSSVILLE       N/A     70  68  93 CALM      30.19R
NASHVILLE        N/A     78  73  84 CALM      30.13R
$$

...KEY TO REMARKS...
VSB - VISIBILITY IN MILES
WCI - WIND CHILL INDEX
HX  - HEAT INDEX

$$



USA.gov is the U.S. government's official web portal to all federal, state and local government web resources and services.